SCP
0 0 0 0 0 0 0 0 0 0 0 0 0 0 0 0 0 0 0 0 0 0 0 0 0 0 0 0 0 0 0 0 0 0 0 0 0 0 0 0 0 0 0
0 0 0 0 0 0 0 0 0 0 0 0 0 0 0 0 0 0 0 0 0 0 0 0 0 0 0 0 0 0 0 0 0 0 0 0 0 0 0 0 0 0 0
0 0 0 0 0 0 0 0 0 0 0 0 0 0 0 0 0 0 0 0 0 0 0 0 0 0 0 0 0 0 0 0 0 0 0 0 0 0 0 0 0 0 0
0 0 0 0 0 0 0 0 0 0 0 0 0 0 0 0 0 0 0 0 0 0 0 0 0 0 0 0 0 0 0 0 0 0 0 0 0 0 0 0 0 0 0
0 0 0 0 0 0 0 0 0 0 0 0 0 0 0 0 0 0 0 0 0 0 0 0 0 0 0 0 0 0 0 0 0 0 0 0 0 0 0 0 0 0 0
0 0 0 0 0 0 0 0 0 0 0 0 0 0 0 0 0 0 0 0 0 0 0 0 0 0 0 0 0 0 0 0 0 0 0 0 0 0 0 0 0 0 0
0 0 0 0 0 0 0 0 0 0 0 0 0 0 0 0 0 0 0 0 0 0 0 0 0 0 0 0 0 0 0 0 0 0 0 0 0 0 0 0 0 0 0
0 0 0 0 0 0 0 0 0 0 0 0 0 0 0 0 0 0 0 0 0 0 0 0 0 0 0 0 0 0 0 0 0 0 0 0 0 0 0 0 0 0 0
-0 0 0 0 0 0 0 0 0 0 0 0 0 0 0 0 0 0 0 0 0 0 0 0 0 0 0 0 0 0 0 0 0 0 0 0 0 0 0 0 0 0 0
-0 0 0 0 0 0 0 0 0 0 0 0 0 0 0 0 0 0 0 0 0 0 0 0 0 0 0 0 0 0 0 0 0 0 0 0 0 0 0 0 0 0 0
0 0 0 0 0 0 0 -0 0 0 0 0 0 0 0 0 0 0 0 0 0 0 0 0 0 0 0 0 0 0 0 0 0 0 0 0 0 0 0 0 0 0 0
0 0 0 0 0 0 0 0 0 -0 0 0 0 0 0 0 0 0 0 0 0 0 0 0 0 0 0 0 0 0 0 0 0 0 0 0 0 0 0 0 0 0 0
0 0 0 0 0 0 0 0 0 0 0 0 0 0 0 0 0 0 0 0 0 0 0 0 0 0 0 0 0 0 0 0 0 0 0 0 0 0 0 0 0 0 0
0 0 0 0 0 0 0 0 0 0 0 0 0 0 0 0 0 0 0 0 0 0 0 0 0 0 0 0 0 0 0 0 0 0 0 0 0 0 0 0 0 0 0
0 0 0 0 0 0 0 0 0 0 0 0 0 0 0 0 0 0 0 0 0 0 0 0 0 0 0 0 0 0 0 0 0 0 0 0 0 0 0 0 0 0 0
0 0 0 0 0 0 0 0 0 0 0 0 0 0 0 0 0 0 0 0 0 0 0 0 0 0 0 0 0 0 0 0 0 0 0 0 0 0 0 0 0 0 0
0 0 0 0 0 0 0 0 0 0 0 0 0 0 0 0 0 0 0 0 0 0 0 0 0 0 0 0 0 0 0 0 0 0 0 0 0 0 0 0 0 0 0
0 0 0 0 0 0 0 0 0 0 0 0 0 0 0 0 0 0 0 0 0 0 0 0 0 0 0 0 0 0 0 0 0 0 0 0 0 0 0 0 0 0 0
0 0 0 0 0 0 0 0 0 0 0 0 0 0 0 0 0 0 0 0 0 0 0 0 0 0 0 0 0 0 0 0 0 0 0 0 0 0 0 0 0 0 0
0 0 0 0 0 0 0 0 0 0 0 0 0 0 0 0 0 0 0 0 0 0 0 0 0 0 0 0 0 0 0 0 0 0 0 0 0 0 0 0 0 0 0
0 0 0 0 0 0 0 0 0 0 0 0 0 0 0 0 0 0 0 0 0 0 0 0 0 0 0 0 0 0 0 0 0 0 0 0 0 0 0 0 0 0 0
0 0 0 0 0 0 0 0 0 0 0 0 0 0 0 0 0 0 0 0 0 0 0 0 0 0 0 0 0 0 0 0 0 0 0 0 0 0 0 0 0 0 0
0 0 0 0 0 0 0 0 0 0 0 0 0 0 0 0 0 0 0 0 0 0 0 0 0 0 0 0 0 0 0 0 0 0 0 0 0 0 0 0 0 0 0
0 0 0 0 0 0 0 0 0 0 0 0 0 0 0 0 0 0 0 0 0 0 0 0 0 0 0 0 0 0 0 0 0 0 0 0 0 0 0 0 0 0 0
0 0 0 0 0 0 0 0 0 0 0 0 0 0 0 0 0 0 0 0 0 0 0 0 0 0 0 0 0 0 0 0 0 0 0 0 0 0 0 0 0 0 0
0 0 0 0 0 0 0 0 0 0 0 0 0 0 0 0 0 0 0 0 0 0 0 0 0 0 0 0 0 0 0 0 0 0 0 0 0 0 0 0 0 0 0
Wind_Speed
8 7 7 6 6 5 4 4 3 3 2 1 2 3 4 5 4 5 5 5 6 6 5 6 6 5 5 4 4 4 4 4 6 3 2 2 5 6 5 4 4 4 4
8 8 9 9 8 7 6 5 5 4 3 2 1 1 2 3 4 5 5 5 6 6 6 6 6 5 6 5 5 6 5 5 5 4 3 3 5 6 5 5 4 4 4
10 10 10 10 9 8 7 6 6 5 5 5 3 1 0 1 3 3 4 5 6 6 6 6 6 6 7 5 5 6 5 4 3 4 4 3 2 3 4 3 3 3 3
12 12 11 10 9 9 8 8 8 7 6 6 5 3 2 1 1 1 2 3 4 5 5 6 6 7 7 7 6 6 5 5 4 4 3 3 3 3 4 4 4 4 4
12 12 12 10 10 10 11 10 10 9 8 6 6 6 4 3 2 1 2 3 4 4 4 4 5 7 8 7 6 6 6 6 5 5 4 3 4 4 5 4 5 3 3
12 12 11 11 11 11 10 9 9 9 8 8 7 6 6 5 7 6 3 2 3 4 4 4 4 6 7 9 10 9 9 8 7 6 5 7 7 6 5 5 5 4 4
10 10 10 10 10 9 9 9 9 8 8 8 7 6 6 7 11 10 7 2 2 3 4 4 3 4 6 5 7 8 9 12 11 8 8 8 7 7 8 7 6 5 5
9 9 9 9 9 8 9 9 8 6 6 6 7 6 6 7 12 12 10 4 2 3 3 4 5 5 5 5 4 5 5 6 7 7 7 7 6 7 8 7 6 4 2
9 9 8 7 7 8 8 7 6 6 6 5 5 6 6 7 12 12 10 4 3 4 3 4 4 5 8 7 5 5 5 5 6 7 7 7 9 11 10 6 6 5 3
8 7 7 7 7 7 7 6 5 5 5 5 6 5 6 6 11 12 11 3 4 4 4 4 6 8 9 8 5 5 6 5 3 3 4 5 6 9 13 9 8 6 4
6 6 6 6 6 6 6 5 6 6 6 6 5 5 5 7 10 12 11 4 4 4 4 4 4 10 11 11 9 6 8 6 4 4 4 3 3 4 5 5 6 6 5
5 6 6 7 6 6 5 5 5 5 6 6 6 6 4 5 8 10 12 10 9 5 5 4 5 11 12 12 9 9 10 7 3 4 4 5 5 5 4 4 4 3 2
6 6 6 6 6 6 6 6 5 5 5 5 5 6 6 5 6 12 13 12 12 7 5 10 12 13 11 8 9 11 8 4 4 5 6 6 4 4 4 4 3 4 4
6 6 6 6 7 6 5 4 4 5 5 5 6 6 6 6 5 5 5 6 8 7 6 8 12 11 9 8 8 6 4 4 5 5 5 3 3 4 4 4 4 4 3
5 5 5 5 6 6 5 4 5 4 5 6 5 5 7 7 9 14 10 6 5 6 7 5 4 4 4 4 4 4 4 4 5 4 4 4 4 5 4 4 4 4 4
4 4 4 4 4 5 5 6 8 9 12 13 13 11 8 12 17 17 16 15 15 13 8 4 4 4 5 5 5 5 4 4 4 4 4 5 5 6 5 5 4 5 5
4 4 4 4 5 5 5 6 7 8 10 12 13 15 14 16 17 17 16 15 14 12 5 4 5 5 5 5 5 5 5 5 4 4 5 5 5 5 6 6 6 5 5
4 5 5 4 4 5 5 6 6 7 8 7 10 14 16 17 17 17 16 12 7 6 4 5 5 6 5 5 5 5 5 4 4 4 4 5 5 6 6 7 7 7 6
4 3 4 4 4 5 5 5 6 7 7 8 7 9 14 15 15 14 12 5 6 6 6 6 6 6 6 6 6 5 5 5 5 4 4 5 5 6 6 7 7 10 8
3 7 7 5 5 5 5 6 6 6 7 7 7 7 8 8 6 7 6 5 6 6 6 6 6 6 6 6 6 5 5 5 5 4 4 4 5 5 6 8 8 8 7
3 5 9 6 5 5 5 6 6 6 7 7 7 9 14 8 7 7 7 6 6 6 7 7 6 6 6 5 5 5 6 5 4 4 4 4 5 5 5 6 7 7 7
3 4 4 5 5 5 6 5 6 6 7 8 7 8 14 7 6 6 6 7 6 6 6 7 6 6 6 6 5 5 5 4 4 4 4 4 4 5 5 6 6 7 8
3 4 5 5 5 8 7 6 6 7 7 7 8 8 7 6 6 7 7 7 7 7 6 6 6 6 6 5 5 5 5 4 4 4 4 4 4 5 5 6 8 9 9
3 4 5 5 5 5 6 6 6 7 7 7 7 7 7 7 7 8 7 7 7 7 6 6 6 8 9 7 5 4 4 4 4 4 5 5 5 5 5 6 7 9 9
3 4 4 4 5 5 6 6 6 7 7 8 7 7 7 7 7 7 7 7 8 8 8 8 6 7 8 9 7 5 7 8 6 4 3 4 4 5 6 7 7 8 8
3 4 4 4 5 5 6 6 7 7 7 7 7 7 7 7 7 7 7 7 7 8 8 7 8 9 10 8 8 8 8 8 7 5 2 2 3 4 5 5 8 8 9
Wind_Direction
33 41 45 51 59 64 65 66 72 74 80 123 152 178 180 179 183 191 199 196 204 210 208 212 218 211 212 209 205 208 215 212 234 225 190 176 178 186 182 183 184 186 199
33 44 47 43 43 51 49 44 45 47 47 57 86 152 178 181 190 197 208 209 210 216 216 216 223 216 219 216 211 216 218 213 214 220 197 192 197 190 182 187 189 190 195
36 47 48 43 41 39 36 36 42 46 44 42 46 50 90 188 195 204 212 217 220 222 218 218 222 216 225 224 221 222 220 215 211 210 205 192 188 171 169 186 189 193 195
37 43 43 37 34 32 35 36 36 36 38 34 30 29 27 24 198 210 214 225 231 233 228 225 224 222 228 225 224 223 217 211 207 208 204 191 187 171 168 184 198 200 199
37 39 36 33 33 33 33 33 32 32 31 29 29 24 19 14 353 304 232 231 233 238 238 235 235 239 240 234 229 221 213 215 209 213 210 196 194 182 196 186 199 187 205
35 34 30 31 32 31 29 29 31 30 26 28 28 23 20 11 355 352 329 253 246 244 251 254 254 246 249 251 248 237 224 217 214 214 217 216 211 202 188 184 178 176 211
33 30 27 28 29 26 25 27 26 22 23 23 19 18 13 2 1 359 346 330 276 255 251 254 265 262 259 248 251 247 238 234 224 217 221 222 211 198 185 189 191 190 197
29 25 21 23 23 20 22 22 16 13 16 14 9 6 3 358 359 356 353 348 311 288 271 256 252 254 249 249 244 244 246 243 236 228 226 224 213 195 194 192 184 165 108
23 17 14 16 18 18 18 11 6 7 8 5 -0 358 356 349 354 355 354 341 325 312 297 278 265 252 258 261 244 240 253 258 252 242 239 232 217 202 184 160 161 165 184
9 4 5 11 14 12 7 1 358 1 358 355 354 352 348 341 347 350 349 339 328 322 318 307 294 288 278 268 249 235 246 252 240 239 238 231 218 206 195 186 179 178 165
351 357 4 6 5 2 359 357 354 354 352 351 345 341 340 339 341 343 340 336 319 314 311 307 299 297 291 284 276 255 250 254 231 218 222 216 203 201 196 188 184 180 175
354 1 1 359 358 359 356 351 350 350 347 343 341 337 334 332 336 333 331 329 325 311 302 299 295 298 297 293 287 268 264 260 227 215 218 215 207 205 195 179 173 163 154
359 359 352 351 352 352 351 347 347 349 346 340 338 331 327 325 323 328 325 321 321 315 300 299 300 298 296 290 278 275 270 246 224 224 223 223 212 191 162 143 128 114 86
357 352 350 350 346 346 345 341 339 337 333 331 329 324 319 316 313 313 308 307 311 311 303 296 299 298 293 280 275 274 258 238 236 234 228 213 179 171 174 165 165 157 138
349 346 344 342 336 333 331 325 324 307 314 318 314 309 312 312 312 316 316 311 305 298 305 297 292 291 285 275 267 260 250 239 240 231 214 204 194 189 182 169 162 160 164
343 339 335 330 327 326 325 323 324 322 323 323 320 317 307 308 314 317 316 315 313 310 310 295 290 286 283 279 274 271 259 244 240 227 214 209 202 195 183 173 171 173 173
329 325 321 323 323 323 324 324 323 323 324 324 325 325 322 320 321 320 319 317 314 314 304 290 286 283 282 280 275 271 267 255 237 221 215 211 201 194 185 182 181 178 175
318 319 322 312 313 315 316 316 315 318 321 320 324 326 326 326 326 325 324 325 317 315 295 292 290 288 284 279 277 278 274 263 243 228 220 213 203 194 191 187 185 182 174
319 314 314 311 313 313 314 314 313 313 313 314 318 322 327 326 326 328 330 323 311 308 305 299 294 290 287 282 276 274 272 265 248 231 221 213 207 199 197 191 185 184 176
318 326 329 322 319 318 318 317 317 317 316 316 317 318 321 323 324 325 326 314 307 305 304 301 298 292 288 283 279 272 269 265 251 237 224 216 210 203 198 191 184 181 181
316 320 329 326 317 316 315 314 314 314 313 312 310 313 321 322 319 317 316 314 310 307 305 302 299 297 291 285 280 273 266 260 252 240 229 220 211 202 196 191 183 179 172
316 315 315 314 314 312 310 309 310 310 311 311 311 313 320 320 312 311 311 311 308 303 300 300 298 295 293 289 282 278 268 256 250 241 233 223 212 200 189 184 178 172 167
317 314 313 313 312 314 318 312 309 308 309 311 312 314 317 316 315 315 314 314 312 308 305 301 299 298 297 294 284 276 269 259 248 238 236 228 213 200 188 183 178 171 169
311 310 311 312 312 310 309 309 309 310 312 311 312 314 316 317 316 316 316 313 311 309 308 304 300 300 302 302 294 284 273 268 254 240 230 224 212 200 188 182 179 175 171
313 311 309 306 307 308 308 308 308 310 311 312 313 313 314 314 313 313 313 312 312 312 313 312 307 307 307 305 300 291 288 286 276 261 239 221 205 196 186 179 176 169 167
308 305 303 301 301 303 305 307 308 310 310 308 307 307 307 308 308 310 311 313 317 317 317 316 316 316 315 311 304 300 296 292 284 273 255 209 194 189 181 176 171 167 164